Theta_e
336 336 335 337 337 338 338 335 335 332 331 330 328 327 328 326 325 325 325 331 332 332 330 331 329 328 329 326 327 325 325 325 323 324 322 324 323 322 322 321 320 319 319
337 335 335 335 336 337 338 336 335 333 332 331 328 330 326 325 324 323 324 327 329 330 330 332 330 328 328 328 326 325 324 325 324 323 322 322 322 322 321 320 320 319 319
335 335 334 334 336 336 336 336 335 334 332 331 329 328 328 324 323 321 321 320 324 327 329 331 330 329 328 327 326 324 325 325 323 322 322 321 322 321 320 319 319 319 318
332 334 333 333 334 335 334 334 334 332 330 328 328 328 329 325 322 321 320 319 318 326 327 328 329 330 328 326 326 325 324 324 323 322 322 321 320 320 320 319 319 318 317
321 335 333 333 334 333 333 333 331 332 330 327 327 327 327 324 322 322 320 319 317 318 323 326 326 327 328 327 326 325 326 324 324 323 321 321 320 320 320 319 319 318 317
317 324 334 333 333 332 331 332 331 331 331 328 329 327 328 327 323 321 319 320 319 319 319 322 322 323 324 326 326 326 327 326 324 323 323 322 321 321 320 319 319 318 317
313 317 325 333 334 332 331 330 331 330 328 327 323 321 321 322 325 323 320 319 318 319 318 318 318 316 321 324 325 327 328 327 326 324 323 322 321 320 320 319 319 318 317
310 314 316 325 334 333 332 331 330 327 327 327 321 319 316 318 319 322 320 320 318 319 318 318 317 316 316 317 319 323 325 327 326 324 323 322 321 321 320 320 319 318 317
309 311 313 315 332 333 331 331 329 328 325 327 324 319 313 313 316 320 320 321 318 317 318 318 317 317 317 317 318 320 320 323 326 325 324 323 322 321 320 320 319 318 318
307 309 309 311 319 332 331 331 330 327 326 323 324 323 321 319 314 313 319 321 320 315 317 317 317 317 317 317 319 318 317 317 321 326 326 324 323 322 321 320 319 319 318
304 307 308 309 312 321 331 330 330 328 328 326 324 322 320 319 320 316 313 317 321 320 318 318 318 317 317 317 316 317 315 314 315 322 325 326 324 323 322 321 320 319 319
301 304 306 308 310 313 319 330 330 329 327 327 327 324 321 318 317 317 315 316 317 319 321 320 317 318 317 317 318 316 314 311 312 317 321 323 324 324 323 322 321 321 320
298 300 303 306 307 310 312 323 329 328 328 326 325 324 325 323 322 322 319 317 317 320 320 322 321 319 319 317 317 316 314 310 310 314 317 319 321 322 322 322 322 322 321
297 300 301 304 307 308 310 315 327 328 328 327 325 325 325 325 325 323 321 319 316 317 319 319 324 323 321 320 319 314 316 309 309 310 313 315 317 318 318 319 320 321 321
297 298 300 302 306 307 309 312 316 327 327 327 327 326 325 325 326 325 325 324 320 314 316 320 319 324 324 324 321 319 317 312 308 308 308 311 314 315 315 316 317 318 319
297 297 298 301 305 305 308 310 313 327 327 327 327 326 325 326 326 326 325 325 323 320 317 322 323 323 325 325 322 322 320 311 307 306 306 307 309 312 313 313 314 314 315
297 298 299 301 304 305 307 307 307 312 326 326 327 326 325 325 325 325 325 324 323 323 319 321 325 326 323 323 325 321 319 314 311 306 305 305 305 307 308 309 310 311 312
297 298 300 301 303 299 299 299 301 303 308 324 325 325 324 325 324 324 325 323 323 324 322 320 321 322 324 325 326 321 322 319 315 307 305 304 304 304 304 305 306 306 307
296 298 299 300 297 296 295 296 296 299 302 308 324 325 325 324 323 324 323 322 322 323 323 321 320 321 322 324 325 326 323 321 318 311 303 302 303 303 303 303 304 304 304
295 297 298 299 297 295 294 294 294 295 299 304 311 322 325 324 323 323 322 321 321 320 320 320 320 320 320 321 323 322 322 323 321 322 309 306 304 303 303 303 303 303 303
295 297 297 297 295 294 292 291 292 294 296 301 306 313 323 320 313 316 321 320 320 319 319 318 318 319 319 318 319 320 319 322 323 324 316 311 308 305 305 302 304 302 302
295 296 295 296 291 292 290 291 291 294 300 302 304 310 315 311 309 303 302 304 316 320 318 318 318 317 318 320 317 317 319 317 316 324 323 321 312 309 310 309 304 301 299
294 293 295 295 290 289 289 290 290 296 296 298 301 303 307 303 298 300 302 301 300 298 303 318 318 318 318 320 320 318 317 317 317 320 322 318 313 313 314 313 302 300 300
293 292 293 293 292 289 289 289 289 294 294 297 300 299 297 297 295 294 300 310 313 315 311 309 316 321 321 322 321 320 319 318 319 318 320 316 319 316 319 318 304 301 299
291 293 292 291 290 287 288 289 290 291 292 295 297 296 294 294 291 291 297 302 314 316 306 300 302 303 301 301 312 321 316 314 313 315 320 318 318 321 321 319 320 302 301
289 290 291 291 289 285 287 288 289 290 290 292 294 294 291 290 290 291 296 298 300 308 306 310 309 304 302 309 297 311 318 314 313 312 318 315 317 317 310 319 324 316 310
Wind_Speed
7 8 7 6 6 6 6 7 7 7 6 6 5 4 10 10 9 6 4 12 14 17 16 16 15 16 15 16 14 15 15 15 14 15 14 16 14 14 14 13 13 12 12
6 8 7 7 5 6 6 8 7 8 6 4 4 6 12 11 10 9 5 7 12 15 13 15 16 15 15 16 15 14 15 15 15 14 15 14 14 13 13 12 12 12 11
4 7 7 6 6 6 6 7 4 1 3 4 7 6 10 11 10 9 7 5 7 11 13 15 15 14 15 15 15 15 15 15 15 15 14 14 14 13 12 12 12 11 11
8 5 6 8 5 5 6 3 5 2 3 5 4 5 8 10 11 10 7 6 5 5 8 13 13 14 15 14 15 16 15 14 15 15 14 14 14 13 13 12 11 11 10
13 4 5 6 8 5 5 6 2 2 2 4 5 5 5 10 11 10 10 8 7 5 4 10 13 12 14 15 16 15 16 16 15 16 15 15 14 14 13 13 12 11 10
14 12 4 6 7 6 6 5 7 7 4 5 6 4 3 5 8 9 11 9 8 8 6 7 6 7 13 14 16 17 17 17 17 17 16 16 15 15 14 14 13 13 12
14 12 8 3 5 7 7 9 5 8 6 3 4 3 4 4 4 7 9 9 9 10 8 7 5 4 6 13 15 18 19 18 19 18 17 17 16 16 15 15 14 14 13
14 12 11 8 6 4 7 8 8 2 2 4 3 4 2 2 2 3 5 10 11 9 9 10 9 8 7 6 11 18 19 20 20 19 19 18 17 17 17 17 15 15 14
12 12 12 11 5 5 5 7 6 6 6 5 5 4 3 3 3 1 3 5 10 8 9 11 11 10 9 8 9 12 15 13 18 19 20 19 18 19 18 18 17 16 15
12 12 13 12 12 5 6 7 7 7 6 5 2 1 1 4 4 1 1 3 5 7 11 9 11 11 11 9 13 14 14 12 13 18 19 20 20 20 19 19 18 17 16
12 13 12 13 12 8 6 7 8 10 9 8 8 4 2 1 2 3 3 4 2 5 8 10 10 10 11 12 10 13 18 17 15 15 19 20 20 20 20 20 19 19 18
10 11 13 9 10 9 9 6 8 9 9 7 8 9 6 5 4 4 3 6 8 4 7 7 10 10 8 11 14 19 20 19 18 18 17 18 20 20 20 21 21 20 19
9 11 12 11 9 10 10 8 7 10 10 10 10 7 8 7 3 5 3 3 6 5 4 6 6 9 10 9 12 19 22 21 20 20 19 18 18 20 20 20 20 21 21
10 12 12 11 9 10 9 8 6 6 8 8 12 10 8 8 8 7 8 6 5 7 6 8 9 7 8 10 11 20 14 23 23 22 21 20 18 18 18 18 19 19 19
10 12 12 12 10 9 10 10 7 7 7 10 9 10 9 7 7 9 9 9 10 6 10 9 6 12 10 8 11 11 12 22 23 23 21 20 20 19 18 18 18 18 18
13 13 11 12 10 8 9 9 7 6 8 7 6 10 10 7 8 8 7 8 10 11 5 9 9 5 11 10 11 11 13 15 24 23 22 21 20 20 20 20 19 19 18
11 12 11 11 10 9 10 10 10 10 8 9 9 10 11 10 7 7 7 7 8 9 11 4 4 6 7 9 9 7 9 10 10 22 23 22 21 20 19 19 19 19 18
11 12 11 10 9 10 10 10 11 10 10 10 9 11 11 8 10 9 8 10 11 8 7 9 3 3 4 7 5 5 8 10 10 18 22 22 21 21 20 19 18 18 18
11 11 10 9 10 10 11 10 10 11 11 10 8 10 11 11 11 6 8 5 4 6 10 8 4 3 3 1 3 4 4 8 8 11 20 20 20 21 22 20 20 20 19
11 9 9 8 9 11 12 13 12 11 10 9 9 7 9 10 11 12 9 9 7 5 5 7 9 5 2 4 3 3 4 2 4 7 11 14 18 20 21 22 23 21 20
10 8 8 6 10 11 11 14 12 10 9 9 8 8 9 11 12 11 8 7 8 8 7 8 8 7 8 6 8 5 6 7 10 6 4 4 5 7 11 16 18 21 24
10 7 8 7 13 10 21 22 16 7 8 8 8 8 6 8 11 15 14 12 14 11 10 7 8 9 12 10 4 4 5 4 5 5 7 8 7 8 9 10 20 23 23
10 11 10 10 12 15 25 25 22 10 10 9 9 8 8 8 12 10 7 11 9 8 10 10 13 11 9 10 9 9 10 9 10 4 9 9 6 9 9 10 17 20 25
7 8 9 11 10 13 26 26 20 12 10 9 9 12 11 10 11 11 9 6 8 10 12 9 13 12 12 11 12 14 15 14 9 4 6 9 5 8 7 9 14 20 23
10 6 7 9 12 13 25 24 18 12 11 10 11 11 13 11 16 15 7 6 7 8 7 12 12 14 13 11 10 8 9 8 8 9 8 9 9 9 7 8 9 18 22
8 8 10 11 16 13 21 24 20 10 11 9 10 11 15 16 17 16 7 7 5 5 7 5 4 7 12 9 8 6 8 9 9 10 13 13 12 7 3 5 8 6 9
Wind_Direction
173 165 164 163 171 173 176 167 181 185 201 212 191 157 141 128 141 128 130 140 144 141 161 161 161 161 158 148 148 147 148 146 150 147 150 137 138 135 134 132 129 129 127
175 170 164 170 184 171 167 174 179 189 199 192 165 139 135 136 148 128 135 144 146 151 161 164 164 167 158 155 158 159 160 156 158 158 155 149 143 143 143 141 140 139 132
192 175 166 172 176 179 164 180 171 190 182 176 145 148 143 137 142 138 141 142 142 161 167 164 164 166 167 166 167 173 163 162 164 165 166 163 156 153 153 153 151 148 141
319 192 176 174 164 163 175 169 189 239 187 170 149 140 130 138 142 147 145 140 137 161 169 160 169 169 170 175 177 180 171 174 177 173 174 173 166 164 164 164 161 156 153
346 201 195 190 175 165 169 183 161 151 193 184 148 137 128 141 149 154 158 150 153 151 163 169 171 178 173 177 188 187 179 182 179 181 179 180 179 177 175 174 173 169 169
349 346 191 184 174 172 174 159 186 194 203 182 139 102 101 133 157 158 164 164 167 168 168 168 182 182 175 184 194 200 191 191 193 191 189 188 188 186 185 185 184 182 181
352 350 346 166 169 185 177 190 169 200 174 167 103 59 34 48 144 158 167 166 173 181 169 171 169 173 192 194 202 203 199 198 199 196 196 196 194 192 193 195 195 193 193
351 350 340 326 179 173 173 175 180 145 132 120 133 110 141 10 353 123 171 172 176 177 179 181 182 181 176 195 209 210 210 203 203 199 203 200 200 201 201 203 204 203 203
351 352 348 340 249 175 182 181 170 168 180 154 178 134 145 182 130 224 193 177 169 172 178 184 188 188 187 187 193 214 222 217 206 206 205 202 206 207 207 210 209 210 211
349 353 352 337 338 182 186 184 171 157 135 172 154 229 123 137 162 167 275 211 164 170 177 185 192 196 189 193 198 201 208 220 211 213 209 207 209 212 212 214 216 215 215
347 355 351 346 340 330 188 185 168 176 179 181 189 155 144 131 152 145 168 219 225 200 182 186 191 199 192 189 196 205 201 204 210 211 214 210 211 214 216 218 219 220 220
344 345 346 340 335 338 333 197 189 187 188 191 190 182 168 176 184 147 156 190 214 221 210 188 190 201 189 191 195 198 201 205 205 207 209 211 211 212 216 220 223 223 223
340 340 336 338 330 330 331 314 197 199 194 194 186 185 189 196 145 184 190 187 200 202 212 235 201 196 197 189 200 196 201 202 205 207 206 208 209 211 214 219 223 226 226
332 330 330 327 332 326 318 317 269 203 192 200 192 195 202 207 193 190 204 186 202 205 207 227 216 203 199 200 204 190 197 200 204 206 205 202 203 207 209 213 222 227 229
330 331 326 322 322 332 323 326 314 207 198 204 208 198 202 199 201 205 211 205 200 202 212 215 211 213 210 196 202 197 198 202 202 205 205 203 203 202 206 208 213 219 224
337 334 325 322 320 327 330 318 308 240 202 203 191 199 199 203 206 205 194 213 213 216 230 212 219 188 205 215 205 195 206 188 201 202 205 203 203 202 205 210 211 214 219
332 329 325 324 321 337 347 352 337 327 215 214 208 209 205 195 200 204 210 216 222 220 223 239 214 212 195 209 219 195 188 192 200 206 204 206 205 203 204 208 211 212 217
334 331 332 330 1 12 0 350 338 332 326 231 210 201 204 196 203 203 211 213 208 197 210 223 187 205 186 192 203 191 199 198 200 203 206 207 207 206 209 209 211 212 213
338 340 346 18 25 13 5 348 340 330 328 318 229 207 210 204 204 193 202 171 196 213 221 231 207 201 216 190 158 203 213 211 207 192 202 208 208 210 214 213 216 217 213
341 349 353 18 22 14 3 353 343 326 321 314 307 270 213 208 207 212 207 199 191 190 207 223 229 217 186 228 209 162 185 192 217 197 201 209 211 216 216 218 219 217 220
343 354 359 35 26 21 4 349 338 323 304 310 321 306 246 209 207 205 196 190 191 214 216 213 224 222 223 209 212 200 217 196 213 192 182 208 203 208 226 236 237 221 219
351 357 10 9 32 18 355 357 353 325 326 328 319 314 325 302 219 217 220 204 200 205 209 214 230 219 224 221 184 180 196 195 225 196 193 222 176 212 221 216 220 221 218
359 12 16 15 43 21 3 4 354 10 5 352 355 354 1 33 18 0 293 238 225 249 235 216 231 230 222 214 197 198 208 216 226 213 198 223 171 222 219 229 210 208 220
11 15 22 28 38 23 9 2 355 9 4 3 15 24 17 14 352 351 329 286 230 237 235 228 239 241 231 229 220 221 222 230 241 219 175 228 176 226 220 224 204 207 213
10 10 29 35 42 26 13 5 1 8 6 15 27 32 15 3 345 341 335 321 269 241 222 228 242 244 257 247 218 209 212 202 219 225 212 226 224 224 204 221 222 210 214
26 17 26 33 42 24 10 4 9 8 8 11 23 19 18 2 354 358 360 343 325 334 351 344 251 253 249 236 220 235 227 225 232 243 233 230 224 177 233 218 216 198 212